Location: Geyikbay?r?
(36.8756°N, 30.4583°E)
Time: 13:55:44
(UTC+00:00)

Cosmos 1980 Rocket - Pass Details

Date: 05 August 2024
Orbit: 830 x 848 km, 71.0° (Epoch: 11 September)

Event Time Altitude Azimuth Distance (km) Brightness Sun altitude
Exits shadow 21:59:01 35° 354° (N) 1,339 3.6 -36.5°
Drops below altitude 10° 22:02:25 10° 13° (NNE) 2,468 5.3 -36.5°
Sets 22:04:55 0° 18° (NNE) 3,404 6.2 -36.5°
